Adak, AK

2:48 AM HDT on May 23, 2017 (GMT -0900)
Adak

Weather History for PADK - November, 2013

Change the Weather History Date:

Saturday, November 23, 2013

  Actual Average Record
Temperature  
Mean Temperature 32 °F -  
Max Temperature 35 °F 41 °F 54 °F (1970)
Min Temperature 30 °F 33 °F 13 °F (1972)
Degree Days  
Heating Degree Days 32    
Moisture  
Dew Point 25 °F    
Average Humidity 68    
Maximum Humidity 86    
Minimum Humidity 47    
Precipitation  
Precipitation 0.00 in - - ()
Sea Level Pressure  
Sea Level Pressure 29.77 in    
Wind  
Wind Speed 14 mph (NE)    
Max Wind Speed 24 mph    
Max Gust Speed 30 mph    
Visibility 10 miles    
Events      
Averages and records for this station are not official NWS values.
T = Trace of Precipitation, MM = Missing Value Source: NWS Daily Summary

Daily Weather History Graph

Daily Weather History Graph

Search for Another Location

Airport or City:

Trip Planner

Search our weather history database for the weather conditions in past years. The results will help you decide how hot, cold, wet, or windy it might be!

Date:

Astronomy

Nov. 23, 2013 Rise Set
Actual Time 9:20 AM HST 5:45 PM HST
Civil Twilight 8:41 AM HST 6:24 PM HST
Nautical Twilight 7:59 AM HST 7:05 PM HST
Astronomical Twilight 7:19 AM HST 7:46 PM HST
Moon 11:46 PM HST 1:28 PM HST
Length of Visible Light 9h 42m
Length of Day
8h 25m
Waning Gibbous, 68% of the Moon is Illuminated
Nov 23
Waning Gibbous
Nov 25
Last Quarter
Dec 2
New
Dec 9
First Quarter
Dec 16
Full

Hourly Weather History & Observations

Time (HST) Temp. Windchill Dew Point Humidity Pressure Visibility Wind Dir Wind Speed Gust Speed Precip Events Conditions
12:16 AM 35.6 °F 25.5 °F 23.0 °F 60% 29.64 in 10.0 mi NE 17.3 mph - N/A   Overcast
12:36 AM 35.6 °F 24.8 °F 21.2 °F 56% 29.63 in 10.0 mi NE 19.6 mph 23.0 mph N/A   Overcast
12:56 AM 35.6 °F 26.2 °F 21.2 °F 56% 29.64 in 10.0 mi NE 15.0 mph 23.0 mph N/A   Overcast
1:16 AM 35.6 °F 23.7 °F 23.0 °F 60% 29.64 in 10.0 mi NE 24.2 mph 29.9 mph N/A   Overcast
1:36 AM 35.6 °F 23.7 °F 24.8 °F 65% 29.65 in 10.0 mi NE 24.2 mph 27.6 mph N/A   Overcast
1:56 AM 33.8 °F 23.9 °F 24.8 °F 70% 29.66 in 10.0 mi NNE 15.0 mph 20.7 mph N/A   Overcast
2:16 AM 33.8 °F 22.8 °F 24.8 °F 70% 29.66 in 10.0 mi NE 18.4 mph 27.6 mph N/A   Overcast
2:36 AM 33.8 °F 23.5 °F 24.8 °F 70% 29.66 in 10.0 mi NE 16.1 mph 23.0 mph N/A   Overcast
2:56 AM 35.6 °F 24.8 °F 23.0 °F 60% 29.66 in 10.0 mi NE 19.6 mph - N/A   Overcast
3:16 AM 33.8 °F 23.5 °F 21.2 °F 60% 29.67 in 10.0 mi NE 16.1 mph 26.5 mph N/A   Overcast
3:36 AM 35.6 °F 25.9 °F 24.8 °F 65% 29.67 in 10.0 mi NE 16.1 mph 23.0 mph N/A   Overcast
3:56 AM 35.6 °F 25.5 °F 24.8 °F 65% 29.68 in 10.0 mi NE 17.3 mph 24.2 mph N/A   Overcast
4:16 AM 35.6 °F 25.5 °F 21.2 °F 56% 29.68 in 10.0 mi NNE 17.3 mph 23.0 mph N/A   Overcast
4:36 AM 33.8 °F 23.5 °F 24.8 °F 70% 29.69 in 10.0 mi NE 16.1 mph 19.6 mph N/A   Overcast
4:56 AM 35.6 °F 25.2 °F 19.4 °F 52% 29.69 in 10.0 mi NE 18.4 mph 25.3 mph N/A   Overcast
5:16 AM 35.6 °F 24.8 °F 21.2 °F 56% 29.70 in 10.0 mi NE 19.6 mph 27.6 mph N/A   Overcast
5:36 AM 33.8 °F 23.9 °F 21.2 °F 60% 29.70 in 10.0 mi NNE 15.0 mph 19.6 mph N/A   Mostly Cloudy
5:56 AM 33.8 °F 26.4 °F 21.2 °F 60% 29.70 in 10.0 mi NNE 9.2 mph - N/A   Scattered Clouds
6:16 AM 35.6 °F 26.2 °F 21.2 °F 56% 29.71 in 10.0 mi NNE 15.0 mph 23.0 mph N/A   Mostly Cloudy
6:36 AM 35.6 °F 25.2 °F 21.2 °F 56% 29.71 in 10.0 mi NE 18.4 mph - N/A   Overcast
6:56 AM 33.8 °F 23.9 °F 24.8 °F 70% 29.72 in 10.0 mi NNE 15.0 mph - N/A   Overcast
7:16 AM 33.8 °F 25.8 °F 23.0 °F 65% 29.73 in 10.0 mi NE 10.4 mph - N/A   Overcast
7:36 AM 35.6 °F 27.1 °F 21.2 °F 56% 29.73 in 10.0 mi NE 12.7 mph - N/A   Overcast
7:56 AM 35.6 °F 28.6 °F 23.0 °F 60% 29.74 in 10.0 mi NNE 9.2 mph 18.4 mph N/A   Overcast
8:16 AM 35.6 °F 24.2 °F 19.4 °F 52% 29.75 in 10.0 mi NE 21.9 mph 25.3 mph N/A   Overcast
8:36 AM 33.8 °F 24.3 °F 24.8 °F 70% 29.75 in 7.0 mi ENE 13.8 mph 24.2 mph N/A   Overcast
8:56 AM 33.8 °F 24.3 °F 26.6 °F 75% 29.76 in 10.0 mi East 13.8 mph - N/A   Mostly Cloudy
9:16 AM 33.8 °F 25.8 °F 26.6 °F 75% 29.76 in 10.0 mi NE 10.4 mph - N/A   Mostly Cloudy
9:36 AM 33.8 °F 24.3 °F 23.0 °F 65% 29.77 in 10.0 mi NNE 13.8 mph - N/A   Mostly Cloudy
9:56 AM 33.8 °F 23.9 °F 24.8 °F 70% 29.77 in 10.0 mi North 15.0 mph - N/A   Mostly Cloudy
10:16 AM 33.8 °F 24.3 °F 26.6 °F 75% 29.78 in 10.0 mi NNE 13.8 mph - N/A   Overcast
10:36 AM 33.8 °F 28.6 °F 26.6 °F 75% 29.79 in 9.0 mi NNE 5.8 mph - N/A   Overcast
10:56 AM 33.8 °F 27.0 °F 26.6 °F 75% 29.79 in 10.0 mi NNE 8.1 mph - N/A   Mostly Cloudy
11:16 AM 35.6 °F 26.2 °F 26.6 °F 70% 29.79 in 10.0 mi NNE 15.0 mph - N/A   Overcast
11:36 AM 35.6 °F 27.1 °F 26.6 °F 70% 29.79 in 10.0 mi NNE 12.7 mph 17.3 mph N/A   Overcast
11:56 AM 35.6 °F 26.2 °F 24.8 °F 65% 29.80 in 10.0 mi NNE 15.0 mph - N/A   Overcast
12:16 PM 35.6 °F 26.2 °F 24.8 °F 65% 29.80 in 10.0 mi NNE 15.0 mph 21.9 mph N/A   Overcast
12:36 PM 35.6 °F 27.1 °F 24.8 °F 65% 29.80 in 10.0 mi NNE 12.7 mph - N/A   Overcast
12:56 PM 35.6 °F 25.2 °F 24.8 °F 65% 29.80 in 10.0 mi NE 18.4 mph 23.0 mph N/A   Overcast
1:16 PM 35.6 °F 25.9 °F 26.6 °F 70% 29.80 in 6.0 mi NNE 16.1 mph 24.2 mph N/A   Overcast
1:36 PM 35.6 °F 26.6 °F 24.8 °F 65% 29.80 in 10.0 mi NNE 13.8 mph 17.3 mph N/A   Mostly Cloudy
1:56 PM 35.6 °F 26.2 °F 26.6 °F 70% 29.80 in 10.0 mi NNE 15.0 mph - N/A   Overcast
2:16 PM 35.6 °F 27.1 °F 24.8 °F 65% 29.81 in 10.0 mi NE 12.7 mph 18.4 mph N/A   Mostly Cloudy
2:36 PM 35.6 °F 26.6 °F 24.8 °F 65% 29.81 in 10.0 mi NE 13.8 mph - N/A   Mostly Cloudy
2:56 PM 35.6 °F 29.9 °F 21.2 °F 56% 29.82 in 10.0 mi NE 6.9 mph - N/A   Overcast
3:16 PM 35.6 °F - 23.0 °F 60% 29.82 in 10.0 mi Calm Calm - N/A   Overcast
3:36 PM 35.6 °F 26.2 °F 26.6 °F 70% 29.83 in 7.0 mi NE 15.0 mph - N/A   Overcast
3:56 PM 33.8 °F 24.8 °F 28.4 °F 81% 29.83 in 5.0 mi NE 12.7 mph - N/A   Overcast
4:16 PM 33.8 °F - 28.4 °F 81% 29.83 in 9.0 mi Calm Calm - N/A   Overcast
4:36 PM 33.8 °F - 26.6 °F 75% 29.83 in 10.0 mi Calm Calm - N/A   Overcast
4:56 PM 33.8 °F - 26.6 °F 75% 29.83 in 10.0 mi Calm Calm - N/A   Overcast
5:16 PM 33.8 °F - 26.6 °F 75% 29.83 in 10.0 mi Calm Calm - N/A   Overcast
5:36 PM 33.8 °F - 26.6 °F 75% 29.83 in 10.0 mi Calm Calm - N/A   Overcast
5:56 PM 33.8 °F 28.6 °F 26.6 °F 75% 29.83 in 10.0 mi NNE 5.8 mph - N/A   Mostly Cloudy
6:16 PM 33.8 °F 27.0 °F 26.6 °F 75% 29.83 in 10.0 mi NNE 8.1 mph - N/A   Mostly Cloudy
6:36 PM 33.8 °F 23.5 °F 28.4 °F 81% 29.83 in 10.0 mi NE 16.1 mph - N/A   Mostly Cloudy
6:56 PM 33.8 °F 24.8 °F 26.6 °F 75% 29.83 in 10.0 mi NE 12.7 mph - N/A   Mostly Cloudy
7:16 PM 32.0 °F 26.4 °F 24.8 °F 75% 29.83 in 10.0 mi NE 5.8 mph - N/A   Scattered Clouds
7:36 PM 32.0 °F 24.2 °F 24.8 °F 75% 29.84 in 10.0 mi NE 9.2 mph - N/A   Partly Cloudy
7:56 PM 32.0 °F - 26.6 °F 80% 29.84 in 10.0 mi Calm Calm - N/A   Mostly Cloudy
8:16 PM 30.2 °F - 26.6 °F 86% 29.84 in 10.0 mi Calm Calm - N/A   Mostly Cloudy
8:36 PM 30.2 °F - 26.6 °F 86% 29.84 in 10.0 mi Calm Calm - N/A   Mostly Cloudy
8:56 PM 32.0 °F - 26.6 °F 80% 29.84 in 10.0 mi Calm Calm - N/A   Mostly Cloudy
9:16 PM 30.2 °F - 24.8 °F 80% 29.85 in 10.0 mi Calm Calm - N/A   Overcast
9:36 PM 32.0 °F - 26.6 °F 80% 29.85 in 10.0 mi Calm Calm - N/A   Overcast
9:56 PM 32.0 °F - 24.8 °F 75% 29.85 in 10.0 mi Calm Calm - N/A   Mostly Cloudy
10:16 PM 33.8 °F 30.8 °F 24.8 °F 70% 29.85 in 10.0 mi NE 3.5 mph - N/A   Mostly Cloudy
10:36 PM 35.6 °F 30.7 °F 26.6 °F 70% 29.85 in 10.0 mi East 5.8 mph - N/A   Overcast
10:56 PM 35.6 °F - 26.6 °F 70% 29.85 in 10.0 mi Calm Calm - N/A   Overcast
11:16 PM 35.6 °F - 26.6 °F 70% 29.85 in 10.0 mi Calm Calm - N/A   Mostly Cloudy
11:36 PM 33.8 °F 29.6 °F 26.6 °F 75% 29.85 in 10.0 mi NNE 4.6 mph - N/A   Overcast
11:56 PM 33.8 °F - 26.6 °F 75% 29.85 in 5.0 mi Calm Calm - N/A   Overcast